Location: Newark
(42.7133°N, 87.7910°W)
Time: 13:37:52
(UTC+00:00)

A-11 Canister half - Pass Details

Date: 02 October 2019
Orbit: 1527 x 1682 km, 47.3° (Epoch: 15 October)

Event Time Altitude Azimuth Distance (km) Brightness Sun altitude
Exits shadow 10:08:46 21° 287° (WNW) 2,968 10.0 -19.2°
Maximum altitude 10:15:42 69° 7° (N) 1,660 9.2 -17.9°
Drops below altitude 10° 10:25:22 10° 91° (E) 3,821 12.4 -16.2°
Sets 10:28:33 0° 94° (E) 4,827 13.2 -15.6°
